Time,TemperatureF,DewpointF,PressureIn,WindDirection,WindDirectionDegrees,WindSpeedMPH,WindSpeedGustMPH,Humidity,HourlyPrecipIn,Conditions,Clouds,dailyrainin,SoftwareType,DateUTC
2013-02-03 00:00:00,12.9,9.2,30.06,SSE,151,2.0,2.0,85,0.00,,,0.00,Wunderground v.1.15,2013-02-03 06:00:00,
2013-02-03 00:06:00,12.9,9.2,30.07,SSE,159,2.0,2.0,85,0.00,,,0.00,Wunderground v.1.15,2013-02-03 06:06:00,
2013-02-03 00:11:00,13.0,9.6,30.07,SW,216,2.0,2.0,86,0.00,,,0.00,Wunderground v.1.15,2013-02-03 06:11:00,
2013-02-03 00:17:00,13.2,10.1,30.06,SSW,206,1.0,2.0,87,0.00,,,0.00,Wunderground v.1.15,2013-02-03 06:17:00,
2013-02-03 00:22:00,13.1,9.7,30.06,SSW,211,1.0,3.0,86,0.00,,,0.00,Wunderground v.1.15,2013-02-03 06:22:00,
2013-02-03 00:28:00,13.1,9.7,30.06,SSW,211,2.0,3.0,86,0.00,,,0.00,Wunderground v.1.15,2013-02-03 06:28:00,
2013-02-03 00:33:00,13.1,9.7,30.05,SSW,211,2.0,3.0,86,0.00,,,0.00,Wunderground v.1.15,2013-02-03 06:33:00,
2013-02-03 00:38:00,13.1,10.0,30.05,SSW,198,2.0,3.0,87,0.00,,,0.00,Wunderground v.1.15,2013-02-03 06:38:00,
2013-02-03 00:43:00,13.1,10.0,30.05,SW,224,2.0,2.0,87,0.00,,,0.00,Wunderground v.1.15,2013-02-03 06:43:00,
2013-02-03 00:48:00,13.2,10.1,30.05,SSW,208,3.0,4.0,87,0.00,,,0.00,Wunderground v.1.15,2013-02-03 06:48:00,
2013-02-03 00:53:00,13.3,10.4,30.04,SSW,212,2.0,3.0,88,0.00,,,0.00,Wunderground v.1.15,2013-02-03 06:53:00,
2013-02-03 00:58:00,13.3,10.4,30.04,SSW,211,2.0,3.0,88,0.00,,,0.00,Wunderground v.1.15,2013-02-03 06:58:00,
2013-02-03 01:04:00,13.4,10.3,30.04,SSW,201,3.0,6.0,87,0.00,,,0.00,Wunderground v.1.15,2013-02-03 07:04:00,
2013-02-03 01:09:00,13.4,10.3,30.03,SSE,158,4.0,6.0,87,0.00,,,0.00,Wunderground v.1.15,2013-02-03 07:09:00,
2013-02-03 01:14:00,13.6,10.5,30.04,SSW,199,3.0,5.0,87,0.00,,,0.00,Wunderground v.1.15,2013-02-03 07:14:00,
2013-02-03 01:20:00,13.7,10.5,30.03,SE,143,3.0,4.0,87,0.00,,,0.00,Wunderground v.1.15,2013-02-03 07:20:00,
2013-02-03 01:25:00,13.8,10.6,30.03,SSE,162,3.0,4.0,87,0.00,,,0.00,Wunderground v.1.15,2013-02-03 07:25:00,
2013-02-03 01:31:00,13.9,10.7,30.04,SSW,211,3.0,3.0,87,0.00,,,0.00,Wunderground v.1.15,2013-02-03 07:31:00,
2013-02-03 01:36:00,14.0,10.8,30.04,SSW,209,2.0,3.0,87,0.00,,,0.00,Wunderground v.1.15,2013-02-03 07:36:00,
2013-02-03 01:41:00,14.1,10.9,30.03,SSE,165,2.0,2.0,87,0.00,,,0.00,Wunderground v.1.15,2013-02-03 07:41:00,
2013-02-03 01:46:00,14.2,11.0,30.03,SSW,206,2.0,3.0,87,0.00,,,0.00,Wunderground v.1.15,2013-02-03 07:46:00,
2013-02-03 01:51:00,14.3,11.1,30.03,South,181,3.0,3.0,87,0.00,,,0.00,Wunderground v.1.15,2013-02-03 07:51:00,
2013-02-03 01:57:00,14.3,11.1,30.03,SSW,211,3.0,3.0,87,0.00,,,0.00,Wunderground v.1.15,2013-02-03 07:57:00,
2013-02-03 02:02:00,14.4,11.5,30.03,SSE,165,3.0,3.0,88,0.00,,,0.00,Wunderground v.1.15,2013-02-03 08:02:00,
2013-02-03 02:07:00,14.4,11.5,30.02,South,186,3.0,4.0,88,0.00,,,0.00,Wunderground v.1.15,2013-02-03 08:07:00,
2013-02-03 02:12:00,14.5,11.6,30.02,SSW,211,2.0,2.0,88,0.00,,,0.00,Wunderground v.1.15,2013-02-03 08:12:00,
2013-02-03 02:17:00,14.6,11.7,30.02,SW,220,2.0,3.0,88,0.00,,,0.00,Wunderground v.1.15,2013-02-03 08:17:00,
2013-02-03 02:22:00,14.6,11.7,30.02,SSW,198,2.0,3.0,88,0.00,,,0.00,Wunderground v.1.15,2013-02-03 08:22:00,
2013-02-03 02:27:00,14.7,11.8,30.02,SW,216,2.0,3.0,88,0.00,,,0.00,Wunderground v.1.15,2013-02-03 08:27:00,
2013-02-03 02:32:00,14.8,11.6,30.02,SSE,159,2.0,2.0,87,0.00,,,0.00,Wunderground v.1.15,2013-02-03 08:32:00,
2013-02-03 02:37:00,14.8,11.6,30.01,SSE,163,2.0,3.0,87,0.00,,,0.00,Wunderground v.1.15,2013-02-03 08:37:00,
2013-02-03 02:43:00,14.8,11.9,30.01,SSW,211,2.0,3.0,88,0.00,,,0.00,Wunderground v.1.15,2013-02-03 08:43:00,
2013-02-03 02:48:00,14.8,11.6,30.01,SSW,206,2.0,3.0,87,0.00,,,0.00,Wunderground v.1.15,2013-02-03 08:48:00,
2013-02-03 02:53:00,14.9,12.0,30.01,SW,216,2.0,2.0,88,0.00,,,0.00,Wunderground v.1.15,2013-02-03 08:53:00,
2013-02-03 02:58:00,14.9,12.0,30.01,SSW,211,2.0,3.0,88,0.00,,,0.00,Wunderground v.1.15,2013-02-03 08:58:00,
2013-02-03 03:04:00,15.0,11.8,30.00,SW,228,3.0,4.0,87,0.00,,,0.00,Wunderground v.1.15,2013-02-03 09:04:00,
2013-02-03 03:09:00,15.0,11.8,30.00,SW,222,4.0,5.0,87,0.00,,,0.00,Wunderground v.1.15,2013-02-03 09:09:00,
2013-02-03 03:14:00,15.1,12.2,30.00,SW,232,4.0,5.0,88,0.00,,,0.00,Wunderground v.1.15,2013-02-03 09:14:00,
2013-02-03 03:19:00,15.2,12.3,30.00,SSW,211,4.0,5.0,88,0.00,,,0.00,Wunderground v.1.15,2013-02-03 09:19:00,
2013-02-03 03:24:00,15.2,12.3,30.00,SW,235,3.0,4.0,88,0.00,,,0.00,Wunderground v.1.15,2013-02-03 09:24:00,
2013-02-03 03:29:00,15.3,12.4,30.00,SW,219,3.0,4.0,88,0.00,,,0.00,Wunderground v.1.15,2013-02-03 09:29:00,
2013-02-03 03:35:00,15.4,12.5,30.00,SW,228,3.0,5.0,88,0.00,,,0.00,Wunderground v.1.15,2013-02-03 09:35:00,
2013-02-03 03:40:00,15.4,12.5,29.99,SW,215,4.0,5.0,88,0.00,,,0.00,Wunderground v.1.15,2013-02-03 09:40:00,
2013-02-03 03:45:00,15.4,12.5,29.99,SSW,209,5.0,5.0,88,0.00,,,0.00,Wunderground v.1.15,2013-02-03 09:45:00,
2013-02-03 03:50:00,15.5,12.6,29.99,SSW,204,5.0,5.0,88,0.00,,,0.00,Wunderground v.1.15,2013-02-03 09:50:00,
2013-02-03 03:55:00,15.5,12.6,29.99,SSW,213,5.0,6.0,88,0.00,,,0.00,Wunderground v.1.15,2013-02-03 09:55:00,
2013-02-03 04:00:00,15.6,12.9,29.99,SSW,204,5.0,7.0,89,0.00,,,0.00,Wunderground v.1.15,2013-02-03 10:00:00,
2013-02-03 04:06:00,15.7,13.0,29.99,SW,224,6.0,7.0,89,0.00,,,0.00,Wunderground v.1.15,2013-02-03 10:06:00,
2013-02-03 04:11:00,15.8,13.1,29.99,SW,223,5.0,5.0,89,0.00,,,0.00,Wunderground v.1.15,2013-02-03 10:11:00,
2013-02-03 04:16:00,15.9,13.2,29.99,SW,222,6.0,6.0,89,0.00,,,0.00,Wunderground v.1.15,2013-02-03 10:16:00,
2013-02-03 04:21:00,16.0,13.3,29.99,SW,235,6.0,7.0,89,0.00,,,0.00,Wunderground v.1.15,2013-02-03 10:21:00,
2013-02-03 04:27:00,16.1,13.4,29.99,SW,223,6.0,8.0,89,0.00,,,0.00,Wunderground v.1.15,2013-02-03 10:27:00,
2013-02-03 04:32:00,16.3,13.6,29.99,WSW,237,7.0,8.0,89,0.00,,,0.00,Wunderground v.1.15,2013-02-03 10:32:00,
2013-02-03 04:37:00,16.4,13.7,29.99,WSW,237,7.0,8.0,89,0.00,,,0.00,Wunderground v.1.15,2013-02-03 10:37:00,
2013-02-03 04:42:00,16.6,13.9,29.99,SW,236,8.0,10.0,89,0.00,,,0.00,Wunderground v.1.15,2013-02-03 10:42:00,
2013-02-03 04:47:00,16.7,14.0,29.99,SW,236,9.0,11.0,89,0.00,,,0.00,Wunderground v.1.15,2013-02-03 10:47:00,
2013-02-03 04:53:00,16.7,14.3,29.99,SW,233,10.0,11.0,90,0.00,,,0.00,Wunderground v.1.15,2013-02-03 10:53:00,
2013-02-03 04:58:00,16.7,14.3,29.99,WSW,237,10.0,11.0,90,0.00,,,0.00,Wunderground v.1.15,2013-02-03 10:58:00,
2013-02-03 05:04:00,16.6,14.4,30.00,WSW,237,10.0,11.0,91,0.00,,,0.00,Wunderground v.1.15,2013-02-03 11:04:00,
2013-02-03 05:09:00,16.7,14.8,30.00,WSW,247,10.0,11.0,92,0.00,,,0.00,Wunderground v.1.15,2013-02-03 11:09:00,
2013-02-03 05:14:00,16.7,14.8,30.00,WSW,249,10.0,11.0,92,0.00,,,0.00,Wunderground v.1.15,2013-02-03 11:14:00,
2013-02-03 05:19:00,16.8,14.9,30.00,WSW,247,10.0,11.0,92,0.00,,,0.00,Wunderground v.1.15,2013-02-03 11:19:00,
2013-02-03 05:24:00,16.9,15.0,30.00,WSW,238,9.0,10.0,92,0.00,,,0.00,Wunderground v.1.15,2013-02-03 11:24:00,
2013-02-03 05:29:00,17.0,15.1,30.00,WSW,246,8.0,10.0,92,0.00,,,0.00,Wunderground v.1.15,2013-02-03 11:29:00,
2013-02-03 05:34:00,17.1,15.2,30.00,WSW,254,7.0,8.0,92,0.00,,,0.00,Wunderground v.1.15,2013-02-03 11:34:00,
2013-02-03 05:39:00,17.1,15.2,30.00,WSW,244,7.0,8.0,92,0.00,,,0.00,Wunderground v.1.15,2013-02-03 11:39:00,
2013-02-03 05:45:00,17.3,15.4,30.00,WSW,243,6.0,7.0,92,0.00,,,0.00,Wunderground v.1.15,2013-02-03 11:45:00,
2013-02-03 05:50:00,17.3,15.4,30.00,WSW,242,6.0,6.0,92,0.00,,,0.00,Wunderground v.1.15,2013-02-03 11:50:00,
2013-02-03 05:55:00,17.4,15.5,30.00,WSW,244,6.0,8.0,92,0.00,,,0.00,Wunderground v.1.15,2013-02-03 11:55:00,
2013-02-03 06:00:00,17.4,15.5,30.00,WSW,242,6.0,6.0,92,0.00,,,0.00,Wunderground v.1.15,2013-02-03 12:00:00,
2013-02-03 06:06:00,17.6,15.7,30.00,WSW,246,6.0,6.0,92,0.00,,,0.00,Wunderground v.1.15,2013-02-03 12:06:00,
2013-02-03 06:11:00,17.6,15.7,30.00,WSW,244,5.0,5.0,92,0.00,,,0.00,Wunderground v.1.15,2013-02-03 12:11:00,
2013-02-03 06:16:00,17.7,15.8,30.00,WSW,246,5.0,6.0,92,0.00,,,0.00,Wunderground v.1.15,2013-02-03 12:16:00,
2013-02-03 06:21:00,17.8,15.9,30.00,WSW,242,5.0,6.0,92,0.00,,,0.00,Wunderground v.1.15,2013-02-03 12:21:00,
2013-02-03 06:27:00,18.0,16.1,30.00,WSW,243,5.0,6.0,92,0.00,,,0.00,Wunderground v.1.15,2013-02-03 12:27:00,
2013-02-03 06:32:00,18.1,16.4,30.00,WSW,249,5.0,5.0,93,0.00,,,0.00,Wunderground v.1.15,2013-02-03 12:32:00,
2013-02-03 06:37:00,18.2,16.3,30.00,WSW,254,6.0,7.0,92,0.00,,,0.00,Wunderground v.1.15,2013-02-03 12:37:00,
2013-02-03 06:42:00,18.2,16.3,30.00,WSW,239,6.0,7.0,92,0.00,,,0.00,Wunderground v.1.15,2013-02-03 12:42:00,
2013-02-03 06:48:00,18.3,16.4,30.00,WSW,237,6.0,7.0,92,0.00,,,0.00,Wunderground v.1.15,2013-02-03 12:48:00,
2013-02-03 06:53:00,18.3,16.4,30.00,SW,235,5.0,7.0,92,0.00,,,0.00,Wunderground v.1.15,2013-02-03 12:53:00,
2013-02-03 06:58:00,18.4,16.7,30.00,WSW,243,5.0,7.0,93,0.00,,,0.00,Wunderground v.1.15,2013-02-03 12:58:00,
2013-02-03 07:03:00,18.5,16.8,30.00,West,264,4.0,5.0,93,0.00,,,0.00,Wunderground v.1.15,2013-02-03 13:03:00,
2013-02-03 07:09:00,18.6,16.9,30.00,West,261,5.0,8.0,93,0.00,,,0.00,Wunderground v.1.15,2013-02-03 13:09:00,
2013-02-03 07:14:00,18.8,17.1,30.00,West,265,5.0,6.0,93,0.00,,,0.00,Wunderground v.1.15,2013-02-03 13:14:00,
2013-02-03 07:19:00,18.9,17.2,30.00,SW,230,6.0,7.0,93,0.00,,,0.00,Wunderground v.1.15,2013-02-03 13:19:00,
2013-02-03 07:24:00,19.1,17.4,30.00,West,267,6.0,10.0,93,0.00,,,0.00,Wunderground v.1.15,2013-02-03 13:24:00,
2013-02-03 07:29:00,19.1,17.4,30.01,WSW,240,6.0,10.0,93,0.00,,,0.00,Wunderground v.1.15,2013-02-03 13:29:00,
2013-02-03 07:34:00,19.3,17.6,30.01,WSW,258,5.0,7.0,93,0.00,,,0.00,Wunderground v.1.15,2013-02-03 13:34:00,
2013-02-03 07:39:00,19.5,17.8,30.01,West,264,6.0,7.0,93,0.00,,,0.00,Wunderground v.1.15,2013-02-03 13:39:00,
2013-02-03 07:44:00,19.7,18.0,30.01,West,280,6.0,8.0,93,0.00,,,0.00,Wunderground v.1.15,2013-02-03 13:44:00,
2013-02-03 07:49:00,19.8,18.1,30.01,West,268,7.0,10.0,93,0.00,,,0.00,Wunderground v.1.15,2013-02-03 13:49:00,
2013-02-03 07:54:00,20.0,18.3,30.02,West,261,7.0,13.0,93,0.00,,,0.00,Wunderground v.1.15,2013-02-03 13:54:00,
2013-02-03 07:59:00,20.2,18.5,30.02,West,263,8.0,13.0,93,0.00,,,0.00,Wunderground v.1.15,2013-02-03 13:59:00,
2013-02-03 08:04:00,20.4,18.7,30.02,West,268,9.0,14.0,93,0.00,,,0.00,Wunderground v.1.15,2013-02-03 14:04:00,
2013-02-03 08:09:00,20.5,18.8,30.02,WNW,289,9.0,14.0,93,0.00,,,0.00,Wunderground v.1.15,2013-02-03 14:09:00,
2013-02-03 08:14:00,20.6,18.9,30.02,WNW,292,9.0,16.0,93,0.00,,,0.00,Wunderground v.1.15,2013-02-03 14:14:00,
2013-02-03 08:19:00,20.9,19.2,30.02,WNW,294,12.0,18.0,93,0.00,,,0.00,Wunderground v.1.15,2013-02-03 14:19:00,
2013-02-03 08:24:00,21.0,19.3,30.03,WNW,296,15.0,18.0,93,0.00,,,0.00,Wunderground v.1.15,2013-02-03 14:24:00,
2013-02-03 08:29:00,21.1,19.4,30.02,WNW,291,16.0,18.0,93,0.00,,,0.00,Wunderground v.1.15,2013-02-03 14:29:00,
2013-02-03 08:34:00,21.1,19.4,30.03,NNW,332,17.0,20.0,93,0.00,,,0.00,Wunderground v.1.15,2013-02-03 14:34:00,
2013-02-03 08:40:00,21.2,19.5,30.03,WNW,292,17.0,17.0,93,0.00,,,0.00,Wunderground v.1.15,2013-02-03 14:40:00,
2013-02-03 08:45:00,21.2,19.5,30.03,WNW,294,17.0,20.0,93,0.00,,,0.00,Wunderground v.1.15,2013-02-03 14:45:00,
2013-02-03 08:50:00,21.3,19.6,30.03,WNW,296,18.0,18.0,93,0.00,,,0.00,Wunderground v.1.15,2013-02-03 14:50:00,
2013-02-03 08:56:00,21.3,19.6,30.02,NW,306,17.0,18.0,93,0.00,,,0.00,Wunderground v.1.15,2013-02-03 14:56:00,
2013-02-03 09:02:00,21.5,19.8,30.03,WNW,298,17.0,19.0,93,0.00,,,0.00,Wunderground v.1.15,2013-02-03 15:02:00,
2013-02-03 09:07:00,21.5,19.5,30.02,WNW,293,19.0,22.0,92,0.00,,,0.00,Wunderground v.1.15,2013-02-03 15:07:00,
2013-02-03 09:12:00,21.4,19.4,30.03,WNW,293,21.0,24.0,92,0.00,,,0.00,Wunderground v.1.15,2013-02-03 15:12:00,
2013-02-03 09:17:00,21.4,19.2,30.03,WNW,303,23.0,26.0,91,0.00,,,0.00,Wunderground v.1.15,2013-02-03 15:17:00,
2013-02-03 09:22:00,21.5,19.3,30.03,WNW,291,22.0,22.0,91,0.00,,,0.00,Wunderground v.1.15,2013-02-03 15:22:00,
2013-02-03 09:27:00,21.6,19.1,30.03,WNW,296,21.0,26.0,90,0.00,,,0.00,Wunderground v.1.15,2013-02-03 15:27:00,
2013-02-03 09:33:00,21.7,19.2,30.04,WNW,301,21.0,25.0,90,0.00,,,0.00,Wunderground v.1.15,2013-02-03 15:33:00,
2013-02-03 09:38:00,21.7,19.2,30.04,NNW,331,20.0,25.0,90,0.00,,,0.00,Wunderground v.1.15,2013-02-03 15:38:00,
2013-02-03 09:43:00,21.7,19.2,30.05,NW,306,19.0,21.0,90,0.00,,,0.00,Wunderground v.1.15,2013-02-03 15:43:00,
2013-02-03 09:48:00,21.7,19.0,30.04,WNW,296,19.0,23.0,89,0.00,,,0.00,Wunderground v.1.15,2013-02-03 15:48:00,
2013-02-03 09:53:00,21.9,19.2,30.04,WNW,299,20.0,22.0,89,0.00,,,0.00,Wunderground v.1.15,2013-02-03 15:53:00,
2013-02-03 09:58:00,21.9,18.9,30.05,WNW,289,20.0,26.0,88,0.00,,,0.00,Wunderground v.1.15,2013-02-03 15:58:00,
2013-02-03 10:03:00,21.8,18.8,30.05,NW,317,22.0,25.0,88,0.00,,,0.00,Wunderground v.1.15,2013-02-03 16:03:00,
2013-02-03 10:08:00,21.7,18.4,30.05,NW,310,24.0,27.0,87,0.00,,,0.00,Wunderground v.1.15,2013-02-03 16:08:00,
2013-02-03 10:13:00,21.9,18.9,30.05,NW,314,24.0,24.0,88,0.00,,,0.00,Wunderground v.1.15,2013-02-03 16:13:00,
2013-02-03 10:18:00,22.0,18.7,30.05,NW,318,22.0,27.0,87,0.00,,,0.00,Wunderground v.1.15,2013-02-03 16:18:00,
2013-02-03 10:23:00,22.2,18.9,30.06,NW,322,23.0,28.0,87,0.00,,,0.00,Wunderground v.1.15,2013-02-03 16:23:00,
2013-02-03 10:28:00,22.2,18.9,30.05,WNW,303,22.0,28.0,87,0.00,,,0.00,Wunderground v.1.15,2013-02-03 16:28:00,
2013-02-03 10:33:00,22.1,18.0,30.06,NW,306,22.0,25.0,84,0.00,,,0.00,Wunderground v.1.15,2013-02-03 16:33:00,
2013-02-03 10:38:00,22.0,17.6,30.06,NW,307,24.0,30.0,83,0.00,,,0.00,Wunderground v.1.15,2013-02-03 16:38:00,
2013-02-03 10:43:00,22.1,17.7,30.06,NW,307,25.0,28.0,83,0.00,,,0.00,Wunderground v.1.15,2013-02-03 16:43:00,
2013-02-03 10:48:00,22.1,17.7,30.07,NW,312,24.0,28.0,83,0.00,,,0.00,Wunderground v.1.15,2013-02-03 16:48:00,
2013-02-03 10:53:00,22.2,18.1,30.06,NW,307,22.0,24.0,84,0.00,,,0.00,Wunderground v.1.15,2013-02-03 16:53:00,
2013-02-03 10:58:00,22.2,18.4,30.07,NW,304,21.0,25.0,85,0.00,,,0.00,Wunderground v.1.15,2013-02-03 16:58:00,
2013-02-03 11:04:00,22.5,18.9,30.06,WNW,293,20.0,22.0,86,0.00,,,0.00,Wunderground v.1.15,2013-02-03 17:04:00,
2013-02-03 11:09:00,22.5,18.9,30.07,NW,304,21.0,27.0,86,0.00,,,0.00,Wunderground v.1.15,2013-02-03 17:09:00,
2013-02-03 11:14:00,22.7,19.1,30.08,WNW,299,22.0,27.0,86,0.00,,,0.00,Wunderground v.1.15,2013-02-03 17:14:00,
2013-02-03 11:19:00,22.7,19.4,30.08,WNW,293,23.0,27.0,87,0.00,,,0.00,Wunderground v.1.15,2013-02-03 17:19:00,
2013-02-03 11:24:00,22.7,19.1,30.08,NW,313,23.0,26.0,86,0.00,,,0.00,Wunderground v.1.15,2013-02-03 17:24:00,
2013-02-03 11:29:00,22.3,17.9,30.08,WNW,296,24.0,30.0,83,0.00,,,0.00,Wunderground v.1.15,2013-02-03 17:29:00,
2013-02-03 11:34:00,22.3,17.9,30.08,WNW,298,25.0,31.0,83,0.00,,,0.00,Wunderground v.1.15,2013-02-03 17:34:00,
2013-02-03 11:39:00,22.3,17.6,30.08,WNW,287,25.0,31.0,82,0.00,,,0.00,Wunderground v.1.15,2013-02-03 17:39:00,
2013-02-03 11:44:00,22.5,17.8,30.08,WNW,301,24.0,27.0,82,0.00,,,0.00,Wunderground v.1.15,2013-02-03 17:44:00,
2013-02-03 11:49:00,22.5,17.8,30.08,WNW,301,25.0,27.0,82,0.00,,,0.00,Wunderground v.1.15,2013-02-03 17:49:00,
2013-02-03 11:54:00,22.4,17.7,30.08,NW,304,25.0,28.0,82,0.00,,,0.00,Wunderground v.1.15,2013-02-03 17:54:00,
2013-02-03 11:59:00,22.6,18.2,30.07,NW,306,23.0,28.0,83,0.00,,,0.00,Wunderground v.1.15,2013-02-03 17:59:00,
2013-02-03 12:05:00,22.4,17.7,30.07,WNW,296,24.0,27.0,82,0.00,,,0.00,Wunderground v.1.15,2013-02-03 18:05:00,
2013-02-03 12:10:00,22.2,17.5,30.07,WNW,303,23.0,24.0,82,0.00,,,0.00,Wunderground v.1.15,2013-02-03 18:10:00,
2013-02-03 12:15:00,21.9,17.2,30.07,WNW,301,22.0,24.0,82,0.00,,,0.00,Wunderground v.1.15,2013-02-03 18:15:00,
2013-02-03 12:20:00,22.3,17.6,30.08,West,280,23.0,26.0,82,0.00,,,0.00,Wunderground v.1.15,2013-02-03 18:20:00,
2013-02-03 12:26:00,22.8,18.1,30.08,WNW,296,22.0,28.0,82,0.00,,,0.00,Wunderground v.1.15,2013-02-03 18:26:00,
2013-02-03 12:31:00,22.8,18.4,30.08,WNW,289,22.0,23.0,83,0.00,,,0.00,Wunderground v.1.15,2013-02-03 18:31:00,
2013-02-03 12:36:00,22.6,17.9,30.08,WNW,298,23.0,26.0,82,0.00,,,0.00,Wunderground v.1.15,2013-02-03 18:36:00,
2013-02-03 12:41:00,22.9,17.9,30.08,WNW,296,22.0,23.0,81,0.00,,,0.00,Wunderground v.1.15,2013-02-03 18:41:00,
2013-02-03 12:46:00,23.2,18.5,30.08,WNW,294,21.0,23.0,82,0.00,,,0.00,Wunderground v.1.15,2013-02-03 18:46:00,
2013-02-03 12:51:00,23.2,17.9,30.08,WNW,301,21.0,21.0,80,0.00,,,0.00,Wunderground v.1.15,2013-02-03 18:51:00,
2013-02-03 12:56:00,23.2,17.4,30.09,WNW,292,23.0,25.0,78,0.00,,,0.00,Wunderground v.1.15,2013-02-03 18:56:00,
2013-02-03 13:02:00,23.5,18.2,30.09,WNW,286,22.0,23.0,80,0.00,,,0.00,Wunderground v.1.15,2013-02-03 19:02:00,
2013-02-03 13:07:00,23.6,17.7,30.08,WNW,303,21.0,23.0,78,0.00,,,0.00,Wunderground v.1.15,2013-02-03 19:07:00,
2013-02-03 13:12:00,23.5,17.6,30.09,WNW,301,21.0,23.0,78,0.00,,,0.00,Wunderground v.1.15,2013-02-03 19:12:00,
2013-02-03 13:17:00,23.5,17.0,30.09,NW,308,21.0,24.0,76,0.00,,,0.00,Wunderground v.1.15,2013-02-03 19:17:00,
2013-02-03 13:22:00,23.7,16.9,30.09,WNW,297,21.0,22.0,75,0.00,,,0.00,Wunderground v.1.15,2013-02-03 19:22:00,
2013-02-03 13:27:00,23.8,16.7,30.09,WNW,299,22.0,28.0,74,0.00,,,0.00,Wunderground v.1.15,2013-02-03 19:27:00,
2013-02-03 13:32:00,23.9,17.4,30.09,West,274,21.0,22.0,76,0.00,,,0.00,Wunderground v.1.15,2013-02-03 19:32:00,
2013-02-03 13:37:00,24.2,18.0,30.09,WNW,286,20.0,25.0,77,0.00,,,0.00,Wunderground v.1.15,2013-02-03 19:37:00,
2013-02-03 13:42:00,24.3,17.8,30.09,West,264,20.0,23.0,76,0.00,,,0.00,Wunderground v.1.15,2013-02-03 19:42:00,
2013-02-03 13:48:00,24.4,17.9,30.09,WNW,290,20.0,26.0,76,0.00,,,0.00,Wunderground v.1.15,2013-02-03 19:48:00,
2013-02-03 13:53:00,24.7,18.5,30.09,WNW,292,20.0,23.0,77,0.00,,,0.00,Wunderground v.1.15,2013-02-03 19:53:00,
2013-02-03 13:58:00,24.7,17.6,30.09,WNW,301,19.0,25.0,74,0.00,,,0.00,Wunderground v.1.15,2013-02-03 19:58:00,
2013-02-03 14:03:00,24.7,17.9,30.09,WNW,293,20.0,25.0,75,0.00,,,0.00,Wunderground v.1.15,2013-02-03 20:03:00,
2013-02-03 14:08:00,24.9,17.5,30.09,West,269,20.0,25.0,73,0.00,,,0.00,Wunderground v.1.15,2013-02-03 20:08:00,
2013-02-03 14:13:00,25.1,18.0,30.09,WNW,294,19.0,24.0,74,0.00,,,0.00,Wunderground v.1.15,2013-02-03 20:13:00,
2013-02-03 14:18:00,25.3,17.5,30.09,WNW,294,18.0,24.0,72,0.00,,,0.00,Wunderground v.1.15,2013-02-03 20:18:00,
2013-02-03 14:23:00,25.3,17.5,30.10,West,267,20.0,24.0,72,0.00,,,0.00,Wunderground v.1.15,2013-02-03 20:23:00,
2013-02-03 14:28:00,25.2,16.1,30.10,WNW,292,21.0,26.0,68,0.00,,,0.00,Wunderground v.1.15,2013-02-03 20:28:00,
2013-02-03 14:33:00,25.2,16.8,30.09,West,281,21.0,21.0,70,0.00,,,0.00,Wunderground v.1.15,2013-02-03 20:33:00,
2013-02-03 14:38:00,25.4,17.0,30.09,WNW,301,20.0,28.0,70,0.00,,,0.00,Wunderground v.1.15,2013-02-03 20:38:00,
2013-02-03 14:43:00,25.8,18.3,30.10,WNW,294,20.0,20.0,73,0.00,,,0.00,Wunderground v.1.15,2013-02-03 20:43:00,
2013-02-03 14:48:00,25.8,16.7,30.10,WNW,289,19.0,20.0,68,0.00,,,0.00,Wunderground v.1.15,2013-02-03 20:48:00,
2013-02-03 14:53:00,26.0,17.9,30.10,WNW,294,19.0,19.0,71,0.00,,,0.00,Wunderground v.1.15,2013-02-03 20:53:00,
2013-02-03 14:58:00,26.1,17.0,30.11,West,272,19.0,24.0,68,0.00,,,0.00,Wunderground v.1.15,2013-02-03 20:58:00,
2013-02-03 15:04:00,26.0,17.9,30.11,West,272,19.0,21.0,71,0.00,,,0.00,Wunderground v.1.15,2013-02-03 21:04:00,
2013-02-03 15:09:00,26.3,18.2,30.11,West,275,17.0,23.0,71,0.00,,,0.00,Wunderground v.1.15,2013-02-03 21:09:00,
2013-02-03 15:14:00,26.4,18.3,30.11,WNW,294,16.0,21.0,71,0.00,,,0.00,Wunderground v.1.15,2013-02-03 21:14:00,
2013-02-03 15:19:00,26.5,18.0,30.10,WNW,296,17.0,22.0,70,0.00,,,0.00,Wunderground v.1.15,2013-02-03 21:19:00,
2013-02-03 15:24:00,26.4,17.9,30.10,West,281,18.0,21.0,70,0.00,,,0.00,Wunderground v.1.15,2013-02-03 21:24:00,
2013-02-03 15:29:00,26.6,18.1,30.10,WNW,294,16.0,21.0,70,0.00,,,0.00,Wunderground v.1.15,2013-02-03 21:29:00,
2013-02-03 15:34:00,26.5,17.7,30.10,West,268,15.0,18.0,69,0.00,,,0.00,Wunderground v.1.15,2013-02-03 21:34:00,
2013-02-03 15:39:00,26.5,18.4,30.10,West,280,15.0,18.0,71,0.00,,,0.00,Wunderground v.1.15,2013-02-03 21:39:00,
2013-02-03 15:44:00,26.5,18.0,30.10,West,265,14.0,16.0,70,0.00,,,0.00,Wunderground v.1.15,2013-02-03 21:44:00,
2013-02-03 15:50:00,26.6,18.1,30.10,West,268,14.0,14.0,70,0.00,,,0.00,Wunderground v.1.15,2013-02-03 21:50:00,
2013-02-03 15:55:00,26.7,17.9,30.10,West,264,15.0,19.0,69,0.00,,,0.00,Wunderground v.1.15,2013-02-03 21:55:00,
2013-02-03 16:00:00,26.8,18.3,30.10,West,272,15.0,19.0,70,0.00,,,0.00,Wunderground v.1.15,2013-02-03 22:00:00,
2013-02-03 16:06:00,26.8,18.3,30.10,West,280,15.0,19.0,70,0.00,,,0.00,Wunderground v.1.15,2013-02-03 22:06:00,
2013-02-03 16:11:00,27.0,18.8,30.09,West,276,14.0,15.0,71,0.00,,,0.00,Wunderground v.1.15,2013-02-03 22:11:00,
2013-02-03 16:16:00,27.0,18.2,30.09,WNW,292,15.0,18.0,69,0.00,,,0.00,Wunderground v.1.15,2013-02-03 22:16:00,
2013-02-03 16:22:00,26.9,18.1,30.09,WNW,285,16.0,19.0,69,0.00,,,0.00,Wunderground v.1.15,2013-02-03 22:22:00,
2013-02-03 16:27:00,26.4,17.9,30.09,WNW,289,15.0,19.0,70,0.00,,,0.00,Wunderground v.1.15,2013-02-03 22:27:00,
2013-02-03 16:32:00,26.0,18.5,30.09,West,265,13.0,15.0,73,0.00,,,0.00,Wunderground v.1.15,2013-02-03 22:32:00,
2013-02-03 16:37:00,25.9,18.4,30.09,WNW,284,13.0,15.0,73,0.00,,,0.00,Wunderground v.1.15,2013-02-03 22:37:00,
2013-02-03 16:42:00,25.9,17.8,30.09,WNW,284,12.0,13.0,71,0.00,,,0.00,Wunderground v.1.15,2013-02-03 22:42:00,
2013-02-03 16:47:00,25.9,18.4,30.09,West,270,12.0,14.0,73,0.00,,,0.00,Wunderground v.1.15,2013-02-03 22:47:00,
2013-02-03 16:52:00,25.9,18.4,30.09,West,271,11.0,15.0,73,0.00,,,0.00,Wunderground v.1.15,2013-02-03 22:52:00,
2013-02-03 16:57:00,25.9,18.7,30.08,West,281,10.0,15.0,74,0.00,,,0.00,Wunderground v.1.15,2013-02-03 22:57:00,
2013-02-03 17:03:00,25.9,18.7,30.09,West,268,10.0,12.0,74,0.00,,,0.00,Wunderground v.1.15,2013-02-03 23:03:00,
2013-02-03 17:08:00,25.9,18.7,30.09,West,261,10.0,13.0,74,0.00,,,0.00,Wunderground v.1.15,2013-02-03 23:08:00,
2013-02-03 17:13:00,26.0,18.8,30.08,West,265,10.0,11.0,74,0.00,,,0.00,Wunderground v.1.15,2013-02-03 23:13:00,
2013-02-03 17:18:00,25.9,18.7,30.08,West,272,9.0,11.0,74,0.00,,,0.00,Wunderground v.1.15,2013-02-03 23:18:00,
2013-02-03 17:23:00,25.9,19.7,30.08,West,261,8.0,9.0,77,0.00,,,0.00,Wunderground v.1.15,2013-02-03 23:23:00,
2013-02-03 17:28:00,25.9,19.4,30.08,West,265,7.0,10.0,76,0.00,,,0.00,Wunderground v.1.15,2013-02-03 23:28:00,
2013-02-03 17:33:00,25.9,19.1,30.08,SW,234,7.0,8.0,75,0.00,,,0.00,Wunderground v.1.15,2013-02-03 23:33:00,
2013-02-03 17:39:00,25.9,19.4,30.08,WSW,247,7.0,8.0,76,0.00,,,0.00,Wunderground v.1.15,2013-02-03 23:39:00,
2013-02-03 17:44:00,25.9,19.4,30.07,WSW,258,6.0,8.0,76,0.00,,,0.00,Wunderground v.1.15,2013-02-03 23:44:00,
2013-02-03 17:49:00,25.9,18.7,30.08,WSW,256,6.0,8.0,74,0.00,,,0.00,Wunderground v.1.15,2013-02-03 23:49:00,
2013-02-03 17:54:00,25.9,19.1,30.07,WSW,251,6.0,6.0,75,0.00,,,0.00,Wunderground v.1.15,2013-02-03 23:54:00,
2013-02-03 17:59:00,25.9,19.4,30.07,WSW,250,6.0,6.0,76,0.00,,,0.00,Wunderground v.1.15,2013-02-03 23:59:00,
2013-02-03 18:04:00,25.8,19.9,30.07,WSW,252,6.0,7.0,78,0.00,,,0.00,Wunderground v.1.15,2013-02-04 00:04:00,
2013-02-03 18:10:00,25.6,20.3,30.07,WSW,239,6.0,6.0,80,0.00,,,0.00,Wunderground v.1.15,2013-02-04 00:10:00,
2013-02-03 18:15:00,25.5,20.2,30.07,WSW,246,6.0,6.0,80,0.00,,,0.00,Wunderground v.1.15,2013-02-04 00:15:00,
2013-02-03 18:20:00,25.5,20.5,30.08,WSW,258,5.0,7.0,81,0.00,,,0.00,Wunderground v.1.15,2013-02-04 00:20:00,
2013-02-03 18:25:00,25.5,20.5,30.08,WSW,250,6.0,7.0,81,0.00,,,0.00,Wunderground v.1.15,2013-02-04 00:25:00,
2013-02-03 18:30:00,25.6,20.9,30.08,WSW,245,6.0,6.0,82,0.00,,,0.00,Wunderground v.1.15,2013-02-04 00:30:00,
2013-02-03 18:35:00,25.6,20.9,30.08,West,259,6.0,7.0,82,0.00,,,0.00,Wunderground v.1.15,2013-02-04 00:35:00,
2013-02-03 18:40:00,25.6,20.9,30.08,WSW,249,6.0,6.0,82,0.00,,,0.00,Wunderground v.1.15,2013-02-04 00:40:00,
2013-02-03 18:45:00,25.7,20.7,30.08,WSW,253,6.0,6.0,81,0.00,,,0.00,Wunderground v.1.15,2013-02-04 00:45:00,
2013-02-03 18:50:00,25.7,20.7,30.08,WSW,250,6.0,7.0,81,0.00,,,0.00,Wunderground v.1.15,2013-02-04 00:50:00,
2013-02-03 18:55:00,25.7,20.4,30.08,SW,235,6.0,8.0,80,0.00,,,0.00,Wunderground v.1.15,2013-02-04 00:55:00,
2013-02-03 19:00:00,25.8,20.5,30.09,WSW,244,6.0,6.0,80,0.00,,,0.00,Wunderground v.1.15,2013-02-04 01:00:00,
2013-02-03 19:06:00,25.8,20.5,30.09,WSW,244,7.0,8.0,80,0.00,,,0.00,Wunderground v.1.15,2013-02-04 01:06:00,
2013-02-03 19:11:00,25.8,20.5,30.09,WSW,256,6.0,7.0,80,0.00,,,0.00,Wunderground v.1.15,2013-02-04 01:11:00,
2013-02-03 19:16:00,25.8,20.2,30.09,West,261,6.0,7.0,79,0.00,,,0.00,Wunderground v.1.15,2013-02-04 01:16:00,
2013-02-03 19:21:00,25.9,20.0,30.08,WSW,249,7.0,8.0,78,0.00,,,0.00,Wunderground v.1.15,2013-02-04 01:21:00,
2013-02-03 19:27:00,25.9,20.3,30.08,West,274,7.0,8.0,79,0.00,,,0.00,Wunderground v.1.15,2013-02-04 01:27:00,
2013-02-03 19:32:00,25.9,20.3,30.08,WSW,247,7.0,8.0,79,0.00,,,0.00,Wunderground v.1.15,2013-02-04 01:32:00,
2013-02-03 19:37:00,25.8,20.5,30.08,WSW,254,7.0,8.0,80,0.00,,,0.00,Wunderground v.1.15,2013-02-04 01:37:00,
2013-02-03 19:42:00,25.8,20.5,30.08,WSW,249,6.0,6.0,80,0.00,,,0.00,Wunderground v.1.15,2013-02-04 01:42:00,
2013-02-03 19:47:00,25.7,20.7,30.09,WSW,249,5.0,7.0,81,0.00,,,0.00,Wunderground v.1.15,2013-02-04 01:47:00,
2013-02-03 19:52:00,25.7,20.4,30.09,West,262,5.0,7.0,80,0.00,,,0.00,Wunderground v.1.15,2013-02-04 01:52:00,
2013-02-03 19:57:00,25.7,20.4,30.09,SW,236,6.0,7.0,80,0.00,,,0.00,Wunderground v.1.15,2013-02-04 01:57:00,
2013-02-03 20:03:00,25.6,20.0,30.09,WSW,239,6.0,7.0,79,0.00,,,0.00,Wunderground v.1.15,2013-02-04 02:03:00,
2013-02-03 20:08:00,25.5,20.2,30.09,WSW,250,6.0,7.0,80,0.00,,,0.00,Wunderground v.1.15,2013-02-04 02:08:00,
2013-02-03 20:13:00,25.4,20.1,30.09,WSW,243,6.0,8.0,80,0.00,,,0.00,Wunderground v.1.15,2013-02-04 02:13:00,
2013-02-03 20:18:00,25.2,20.2,30.09,WSW,248,6.0,8.0,81,0.00,,,0.00,Wunderground v.1.15,2013-02-04 02:18:00,
2013-02-03 20:23:00,25.1,19.8,30.09,WSW,247,5.0,8.0,80,0.00,,,0.00,Wunderground v.1.15,2013-02-04 02:23:00,
2013-02-03 20:29:00,24.9,19.9,30.09,WSW,246,6.0,8.0,81,0.00,,,0.00,Wunderground v.1.15,2013-02-04 02:29:00,
2013-02-03 20:34:00,24.7,19.7,30.09,WSW,240,6.0,6.0,81,0.00,,,0.00,Wunderground v.1.15,2013-02-04 02:34:00,
2013-02-03 20:39:00,24.4,19.7,30.09,WSW,244,5.0,6.0,82,0.00,,,0.00,Wunderground v.1.15,2013-02-04 02:39:00,
2013-02-03 20:44:00,24.0,19.3,30.09,WSW,244,5.0,5.0,82,0.00,,,0.00,Wunderground v.1.15,2013-02-04 02:44:00,
2013-02-03 20:49:00,23.4,18.7,30.09,WSW,247,5.0,5.0,82,0.00,,,0.00,Wunderground v.1.15,2013-02-04 02:49:00,
2013-02-03 20:54:00,22.8,18.4,30.09,WSW,239,5.0,5.0,83,0.00,,,0.00,Wunderground v.1.15,2013-02-04 02:54:00,
2013-02-03 20:59:00,22.3,17.9,30.09,WSW,241,5.0,5.0,83,0.00,,,0.00,Wunderground v.1.15,2013-02-04 02:59:00,
2013-02-03 21:05:00,21.7,17.6,30.09,WSW,240,4.0,4.0,84,0.00,,,0.00,Wunderground v.1.15,2013-02-04 03:05:00,
2013-02-03 21:10:00,21.3,17.2,30.10,WSW,244,4.0,4.0,84,0.00,,,0.00,Wunderground v.1.15,2013-02-04 03:10:00,
2013-02-03 21:16:00,20.9,16.8,30.09,WSW,240,4.0,4.0,84,0.00,,,0.00,Wunderground v.1.15,2013-02-04 03:16:00,
2013-02-03 21:21:00,20.6,16.8,30.09,WSW,241,4.0,4.0,85,0.00,,,0.00,Wunderground v.1.15,2013-02-04 03:21:00,
2013-02-03 21:26:00,20.5,16.7,30.09,WSW,242,4.0,4.0,85,0.00,,,0.00,Wunderground v.1.15,2013-02-04 03:26:00,
2013-02-03 21:31:00,20.5,16.7,30.09,WSW,241,4.0,4.0,85,0.00,,,0.00,Wunderground v.1.15,2013-02-04 03:31:00,
2013-02-03 21:36:00,20.6,17.1,30.09,WSW,244,3.0,4.0,86,0.00,,,0.00,Wunderground v.1.15,2013-02-04 03:36:00,
2013-02-03 21:41:00,20.7,17.2,30.09,WSW,240,3.0,3.0,86,0.00,,,0.00,Wunderground v.1.15,2013-02-04 03:41:00,
2013-02-03 21:46:00,21.1,17.6,30.09,WSW,240,3.0,4.0,86,0.00,,,0.00,Wunderground v.1.15,2013-02-04 03:46:00,
2013-02-03 21:51:00,21.6,18.1,30.09,SW,236,4.0,4.0,86,0.00,,,0.00,Wunderground v.1.15,2013-02-04 03:51:00,
2013-02-03 21:56:00,22.0,18.5,30.09,WSW,239,4.0,4.0,86,0.00,,,0.00,Wunderground v.1.15,2013-02-04 03:56:00,
2013-02-03 22:02:00,22.3,18.5,30.09,WSW,244,3.0,4.0,85,0.00,,,0.00,Wunderground v.1.15,2013-02-04 04:02:00,
2013-02-03 22:07:00,22.5,18.7,30.09,WSW,237,2.0,4.0,85,0.00,,,0.00,Wunderground v.1.15,2013-02-04 04:07:00,
2013-02-03 22:13:00,22.6,18.8,30.09,SW,229,2.0,2.0,85,0.00,,,0.00,Wunderground v.1.15,2013-02-04 04:13:00,
2013-02-03 22:19:00,22.6,18.8,30.08,SSW,209,1.0,2.0,85,0.00,,,0.00,Wunderground v.1.15,2013-02-04 04:19:00,
2013-02-03 22:24:00,22.7,18.6,30.08,SSW,206,2.0,3.0,84,0.00,,,0.00,Wunderground v.1.15,2013-02-04 04:24:00,
2013-02-03 22:30:00,22.7,18.6,30.08,South,187,2.0,2.0,84,0.00,,,0.00,Wunderground v.1.15,2013-02-04 04:30:00,
2013-02-03 22:36:00,22.4,18.3,30.07,SSW,208,1.0,2.0,84,0.00,,,0.00,Wunderground v.1.15,2013-02-04 04:36:00,
2013-02-03 22:41:00,22.3,18.5,30.07,SSW,213,1.0,3.0,85,0.00,,,0.00,Wunderground v.1.15,2013-02-04 04:41:00,
2013-02-03 22:47:00,21.9,18.1,30.07,SW,218,2.0,3.0,85,0.00,,,0.00,Wunderground v.1.15,2013-02-04 04:47:00,
2013-02-03 22:53:00,21.7,17.9,30.07,SW,227,2.0,3.0,85,0.00,,,0.00,Wunderground v.1.15,2013-02-04 04:53:00,
2013-02-03 22:58:00,21.6,17.8,30.06,SSW,206,1.0,3.0,85,0.00,,,0.00,Wunderground v.1.15,2013-02-04 04:58:00,
2013-02-03 23:01:00,21.5,17.7,30.06,SSW,206,1.0,1.0,85,0.00,,,0.00,Wunderground v.1.15,2013-02-04 05:01:00,
2013-02-03 23:03:00,21.4,17.6,30.06,SSE,151,1.0,2.0,85,0.00,,,0.00,Wunderground v.1.15,2013-02-04 05:03:00,
2013-02-03 23:04:00,21.3,17.5,30.05,SSE,151,1.0,2.0,85,0.00,,,0.00,Wunderground v.1.15,2013-02-04 05:04:00,
2013-02-03 23:09:00,21.3,17.8,30.06,SSE,152,1.0,2.0,86,0.00,,,0.00,Wunderground v.1.15,2013-02-04 05:09:00,
2013-02-03 23:14:00,21.3,17.8,30.05,South,173,2.0,3.0,86,0.00,,,0.00,Wunderground v.1.15,2013-02-04 05:14:00,
2013-02-03 23:19:00,21.9,18.1,30.06,SSW,204,2.0,3.0,85,0.00,,,0.00,Wunderground v.1.15,2013-02-04 05:19:00,
2013-02-03 23:20:00,21.9,18.1,30.06,SSW,198,2.0,2.0,85,0.00,,,0.00,Wunderground v.1.15,2013-02-04 05:20:00,
2013-02-03 23:25:00,22.0,17.9,30.06,SW,216,2.0,3.0,84,0.00,,,0.00,Wunderground v.1.15,2013-02-04 05:25:00,
2013-02-03 23:30:00,22.0,17.9,30.06,SSW,206,1.0,2.0,84,0.00,,,0.00,Wunderground v.1.15,2013-02-04 05:30:00,
2013-02-03 23:36:00,22.0,17.9,30.06,South,191,2.0,3.0,84,0.00,,,0.00,Wunderground v.1.15,2013-02-04 05:36:00,
2013-02-03 23:41:00,22.1,18.0,30.06,South,183,3.0,4.0,84,0.00,,,0.00,Wunderground v.1.15,2013-02-04 05:41:00,
2013-02-03 23:47:00,22.1,18.3,30.05,SSE,149,2.0,4.0,85,0.00,,,0.00,Wunderground v.1.15,2013-02-04 05:47:00,
2013-02-03 23:52:00,22.0,18.5,30.05,SE,131,2.0,2.0,86,0.00,,,0.00,Wunderground v.1.15,2013-02-04 05:52:00,
2013-02-03 23:58:00,22.3,18.7,30.04,SE,139,2.0,3.0,86,0.00,,,0.00,Wunderground v.1.15,2013-02-04 05:58:00,